TimePST,TemperatureF,Dew PointF,Humidity,Sea Level PressureIn,VisibilityMPH,Wind Direction,Wind SpeedMPH,Gust SpeedMPH,PrecipitationIn,Events,Conditions,WindDirDegrees,DateUTC
12:01 AM,32.0,30.9,96,30.08,1.2,South,5.8,-,N/A,,Overcast,190,2014-01-08 08:01:00
12:16 AM,32.0,30.9,96,30.09,0.5,SSW,5.8,-,N/A,Fog,Fog,200,2014-01-08 08:16:00
12:25 AM,32.0,30.9,96,30.09,0.2,South,5.8,-,N/A,Fog,Fog,190,2014-01-08 08:25:00
12:36 AM,32.0,30.9,96,30.08,0.2,South,4.6,-,N/A,Fog,Fog,180,2014-01-08 08:36:00
12:53 AM,30.9,30.9,100,30.12,0.2,South,4.6,-,N/A,Fog,Light Freezing Fog,180,2014-01-08 08:53:00
1:23 AM,30.9,30.0,96,30.08,0.2,SSW,4.6,-,N/A,Fog,Light Freezing Fog,200,2014-01-08 09:23:00
1:31 AM,30.9,30.0,96,30.09,0.5,South,4.6,-,N/A,Fog,Light Freezing Fog,190,2014-01-08 09:31:00
1:53 AM,30.9,30.0,96,30.13,0.5,SSW,3.5,-,N/A,Fog,Light Freezing Fog,210,2014-01-08 09:53:00
2:18 AM,30.9,30.0,96,30.10,0.8,WSW,3.5,-,N/A,,Overcast,240,2014-01-08 10:18:00
2:33 AM,30.9,30.0,96,30.10,0.2,Calm,Calm,-,N/A,Fog,Light Freezing Fog,0,2014-01-08 10:33:00
2:53 AM,30.9,30.0,96,30.13,0.5,Calm,Calm,-,N/A,Fog,Light Freezing Fog,0,2014-01-08 10:53:00
3:24 AM,30.9,30.9,100,30.09,1.0,Calm,Calm,-,N/A,,Overcast,0,2014-01-08 11:24:00
3:34 AM,32.0,30.0,92,30.09,0.8,Calm,Calm,-,N/A,,Overcast,0,2014-01-08 11:34:00
3:43 AM,32.0,30.0,92,30.08,1.5,Calm,Calm,-,N/A,,Overcast,0,2014-01-08 11:43:00
3:53 AM,32.0,30.0,92,30.11,1.5,Calm,Calm,-,N/A,,Overcast,0,2014-01-08 11:53:00
4:00 AM,32.0,30.0,92,30.07,2.0,Calm,Calm,-,N/A,,Overcast,0,2014-01-08 12:00:00
4:27 AM,32.0,30.0,92,30.09,1.8,NW,5.8,-,N/A,,Overcast,320,2014-01-08 12:27:00
4:39 AM,32.0,30.9,96,30.08,0.2,NNW,4.6,-,N/A,Fog,Fog,330,2014-01-08 12:39:00
4:51 AM,32.0,30.2,93,30.07,0.2,Calm,Calm,-,N/A,Fog,Fog,0,2014-01-08 12:51:00
4:52 AM,32.0,30.9,96,30.11,0.2,Calm,Calm,-,N/A,Fog,Fog,0,2014-01-08 12:52:00
5:01 AM,32.0,30.9,96,30.07,0.2,Calm,Calm,-,N/A,Fog,Fog,0,2014-01-08 13:01:00
5:17 AM,32.0,30.9,96,30.07,1.0,Calm,Calm,-,N/A,,Overcast,0,2014-01-08 13:17:00
5:35 AM,32.0,30.0,92,30.06,1.2,Calm,Calm,-,N/A,,Overcast,0,2014-01-08 13:35:00
5:43 AM,32.0,30.9,96,30.06,1.2,Calm,Calm,-,N/A,,Overcast,0,2014-01-08 13:43:00
5:53 AM,32.0,30.9,96,30.09,1.5,Calm,Calm,-,N/A,,Overcast,0,2014-01-08 13:53:00
6:11 AM,32.0,30.9,96,30.06,0.8,West,3.5,-,N/A,,Overcast,280,2014-01-08 14:11:00
6:21 AM,32.0,30.9,96,30.05,0.5,NW,3.5,-,N/A,Fog,Fog,310,2014-01-08 14:21:00
6:30 AM,32.0,30.0,92,30.06,0.5,WNW,5.8,-,N/A,Fog,Fog,290,2014-01-08 14:30:00
6:33 AM,32.0,30.9,96,30.06,0.2,WNW,4.6,-,N/A,Fog,Fog,290,2014-01-08 14:33:00
6:53 AM,32.0,30.9,96,30.09,0.5,NNE,3.5,-,N/A,Fog,Fog,20,2014-01-08 14:53:00
7:22 AM,32.0,30.0,92,30.04,0.5,East,3.5,-,N/A,Fog,Fog,80,2014-01-08 15:22:00
7:36 AM,32.0,30.9,96,30.04,0.2,Calm,Calm,-,N/A,Fog,Fog,0,2014-01-08 15:36:00
7:53 AM,32.0,30.9,96,30.08,0.2,WNW,3.5,-,N/A,Fog,Fog,290,2014-01-08 15:53:00
7:56 AM,32.0,30.9,96,30.04,0.2,West,4.6,-,N/A,Fog,Fog,280,2014-01-08 15:56:00
8:05 AM,32.0,30.9,96,30.04,0.2,West,3.5,-,N/A,Fog,Fog,280,2014-01-08 16:05:00
8:20 AM,32.0,32.0,100,30.04,0.2,Calm,Calm,-,N/A,Fog,Fog,0,2014-01-08 16:20:00
8:26 AM,32.0,30.9,96,30.04,0.5,Calm,Calm,-,N/A,Fog,Fog,0,2014-01-08 16:26:00
8:53 AM,32.0,30.9,96,30.08,0.5,North,3.5,-,N/A,Fog,Fog,360,2014-01-08 16:53:00
8:58 AM,32.0,30.9,96,30.04,0.2,North,4.6,-,N/A,Fog,Fog,10,2014-01-08 16:58:00
9:09 AM,32.0,30.9,96,30.03,0.8,Calm,Calm,-,N/A,,Overcast,0,2014-01-08 17:09:00
9:19 AM,32.0,30.9,96,30.03,1.0,Calm,Calm,-,N/A,,Overcast,0,2014-01-08 17:19:00
9:30 AM,33.1,30.9,92,30.03,0.8,NNE,3.5,-,N/A,,Overcast,30,2014-01-08 17:30:00
9:38 AM,33.1,30.9,92,30.03,1.2,NE,3.5,-,N/A,,Overcast,50,2014-01-08 17:38:00
9:53 AM,33.1,30.9,92,30.06,1.5,ENE,3.5,-,N/A,,Overcast,70,2014-01-08 17:53:00
10:24 AM,34.0,32.0,92,30.01,3.0,Calm,Calm,-,0.00,,Overcast,0,2014-01-08 18:24:00
10:49 AM,33.8,32.0,93,30.01,0.8,West,3.5,-,0.00,,Overcast,260,2014-01-08 18:49:00
10:53 AM,33.1,32.0,96,30.04,0.8,West,5.8,-,0.00,,Overcast,270,2014-01-08 18:53:00
11:01 AM,33.1,32.0,96,30.00,0.8,Calm,Calm,-,N/A,,Overcast,0,2014-01-08 19:01:00
11:08 AM,33.1,32.0,96,30.00,1.0,Calm,Calm,-,N/A,,Overcast,0,2014-01-08 19:08:00
11:17 AM,33.1,32.0,96,30.00,0.8,Calm,Calm,-,N/A,,Overcast,0,2014-01-08 19:17:00
11:24 AM,33.1,32.0,96,29.99,1.0,Calm,Calm,-,N/A,,Overcast,0,2014-01-08 19:24:00
11:53 AM,34.0,32.0,92,30.01,1.2,West,4.6,-,N/A,,Overcast,270,2014-01-08 19:53:00
12:53 PM,34.0,33.1,96,29.97,1.0,Calm,Calm,-,N/A,,Overcast,0,2014-01-08 20:53:00
1:04 PM,34.0,33.1,96,29.92,0.8,Calm,Calm,-,N/A,,Overcast,0,2014-01-08 21:04:00
1:23 PM,33.1,32.0,96,29.93,0.5,West,5.8,-,N/A,Fog,Fog,260,2014-01-08 21:23:00
1:34 PM,33.1,33.1,100,29.92,0.2,Calm,Calm,-,N/A,Fog,Fog,0,2014-01-08 21:34:00
1:53 PM,33.1,32.0,96,29.95,0.2,Calm,Calm,-,N/A,Fog,Fog,0,2014-01-08 21:53:00
2:00 PM,34.0,33.1,96,29.91,0.5,West,3.5,-,0.00,Fog-Rain,Light Rain,270,2014-01-08 22:00:00
2:12 PM,34.0,33.1,96,29.91,0.5,Calm,Calm,-,0.00,Fog-Rain,Light Rain,0,2014-01-08 22:12:00
2:35 PM,34.0,33.1,96,29.90,0.5,Variable,3.5,-,0.00,Fog,Fog,0,2014-01-08 22:35:00
2:53 PM,34.0,33.1,96,29.92,0.5,Calm,Calm,-,0.00,Fog-Rain,Light Rain,0,2014-01-08 22:53:00
3:18 PM,35.1,34.0,96,29.87,0.8,NE,3.5,-,0.00,Rain,Light Rain,40,2014-01-08 23:18:00
3:28 PM,35.1,34.0,96,29.86,1.0,NNE,3.5,-,0.00,,Overcast,30,2014-01-08 23:28:00
3:53 PM,37.0,36.0,96,29.88,5.0,Calm,Calm,-,0.00,,Overcast,0,2014-01-08 23:53:00
4:53 PM,35.1,33.1,92,29.86,5.0,South,4.6,-,N/A,,Overcast,170,2014-01-09 00:53:00
5:00 PM,36.0,34.0,93,29.81,2.0,SSE,4.6,-,N/A,,Overcast,150,2014-01-09 01:00:00
5:15 PM,39.9,35.1,83,29.80,5.0,SE,9.2,-,0.00,Rain,Light Rain,140,2014-01-09 01:15:00
5:53 PM,48.9,37.0,64,29.80,10.0,SSE,18.4,-,0.00,Rain,Light Rain,150,2014-01-09 01:53:00
6:53 PM,41.0,35.1,79,29.81,9.0,WSW,13.8,-,0.01,Rain,Light Rain,250,2014-01-09 02:53:00
7:03 PM,34.0,32.0,92,29.79,1.8,West,10.4,-,0.00,Rain,Light Rain,260,2014-01-09 03:03:00
7:09 PM,34.0,32.0,92,29.79,0.8,WSW,9.2,-,0.00,Rain,Light Rain,240,2014-01-09 03:09:00
7:30 PM,35.1,33.1,92,29.78,1.8,ESE,3.5,-,0.01,Rain,Light Rain,120,2014-01-09 03:30:00
7:37 PM,36.0,34.0,93,29.78,2.5,SE,4.6,-,0.01,Rain,Light Rain,140,2014-01-09 03:37:00
7:44 PM,37.0,35.1,93,29.78,3.0,South,3.5,-,0.01,Rain,Light Rain,170,2014-01-09 03:44:00
7:53 PM,37.0,35.1,93,29.81,4.0,SSW,4.6,-,0.02,Rain,Light Rain,210,2014-01-09 03:53:00
8:08 PM,35.1,33.1,92,29.80,1.8,West,8.1,-,0.02,Rain,Light Rain,260,2014-01-09 04:08:00
8:18 PM,34.0,33.1,96,29.80,1.0,WSW,6.9,-,0.03,Rain,Light Rain,240,2014-01-09 04:18:00
8:23 PM,33.1,32.0,96,29.80,0.5,WSW,6.9,-,0.03,Fog-Rain,Light Rain,240,2014-01-09 04:23:00
8:27 PM,33.1,32.0,96,29.81,0.2,WSW,8.1,-,0.03,Fog-Rain,Light Rain,240,2014-01-09 04:27:00
8:49 PM,33.8,33.8,100,29.81,0.8,SSE,15.0,-,0.04,Rain,Light Rain,150,2014-01-09 04:49:00
8:51 PM,33.8,33.8,100,29.81,1.0,SE,15.0,-,0.04,Rain,Light Rain,140,2014-01-09 04:51:00
8:53 PM,34.0,33.1,96,29.84,1.2,SE,13.8,-,0.04,Rain,Light Rain,140,2014-01-09 04:53:00
9:02 PM,35.1,33.1,92,29.79,2.0,SE,15.0,-,0.01,Rain,Rain,140,2014-01-09 05:02:00
9:12 PM,39.9,37.0,89,29.79,8.0,South,17.3,-,0.01,Rain,Light Rain,170,2014-01-09 05:12:00
9:53 PM,43.0,39.0,86,29.83,10.0,SSW,16.1,-,0.01,,Scattered Clouds,200,2014-01-09 05:53:00
10:53 PM,43.0,37.9,82,29.82,10.0,South,11.5,-,N/A,,Overcast,180,2014-01-09 06:53:00
11:53 PM,44.1,37.0,76,29.81,9.0,SW,12.7,-,0.01,Rain,Light Rain,220,2014-01-09 07:53:00